Location: Eurasberg
(48.3353°N, 11.0839°E)
Time: 20:16:35
(UTC+00:00)

Cosmos 540 Rocket - Pass Details

Date: 18 January 2026
Orbit: 736 x 747 km, 74.1° (Epoch: 13 February)

Event Time Altitude Azimuth Distance (km) Brightness Sun altitude
Exits shadow 06:20:18 - 324° (NW) 2,797 5.9 -6.7°
Reaches altitude 10° 06:21:53 10° 316° (NW) 2,251 5.4 -6.4°
Maximum altitude 06:26:07 27° 260° (W) 1,397 4.4 -5.8°
Drops below altitude 10° 06:30:19 10° 204° (SSW) 2,240 6.0 -5.1°
Sets 06:32:57 0° 192° (SSW) 3,159 6.9 -4.7°
